TimeCST,TemperatureF,Dew PointF,Humidity,Sea Level PressureIn,VisibilityMPH,Wind Direction,Wind SpeedMPH,Gust SpeedMPH,PrecipitationIn,Events,Conditions,WindDirDegrees,DateUTC
12:15 AM,39.2,35.6,87,29.73,10.0,SE,11.5,-,N/A,,Clear,140,2013-11-16 06:15:00
12:35 AM,39.2,37.4,93,29.73,10.0,SE,10.4,-,N/A,,Clear,140,2013-11-16 06:35:00
12:55 AM,39.2,37.4,93,29.71,10.0,SE,11.5,-,N/A,,Clear,140,2013-11-16 06:55:00
1:15 AM,41.0,37.4,87,29.71,10.0,SSE,11.5,-,N/A,,Clear,160,2013-11-16 07:15:00
1:35 AM,42.8,39.2,87,29.71,10.0,SSE,11.5,-,N/A,,Partly Cloudy,160,2013-11-16 07:35:00
1:55 AM,42.8,39.2,87,29.70,10.0,SSE,12.7,-,N/A,,Partly Cloudy,150,2013-11-16 07:55:00
2:15 AM,42.8,39.2,87,29.70,10.0,SSE,13.8,-,N/A,,Clear,150,2013-11-16 08:15:00
2:35 AM,42.8,39.2,87,29.69,10.0,SSE,11.5,-,N/A,,Scattered Clouds,150,2013-11-16 08:35:00
2:55 AM,42.8,41.0,93,29.68,10.0,SSE,13.8,-,N/A,,Scattered Clouds,160,2013-11-16 08:55:00
3:15 AM,44.6,41.0,87,29.67,10.0,SSE,15.0,-,N/A,,Mostly Cloudy,160,2013-11-16 09:15:00
3:35 AM,44.6,42.8,93,29.66,8.0,SSE,12.7,-,N/A,,Overcast,160,2013-11-16 09:35:00
3:55 AM,46.4,44.6,93,29.64,8.0,South,13.8,-,N/A,,Overcast,170,2013-11-16 09:55:00
4:15 AM,48.2,44.6,87,29.63,8.0,SSE,13.8,-,N/A,,Overcast,160,2013-11-16 10:15:00
4:35 AM,48.2,44.6,87,29.62,7.0,SSE,13.8,-,N/A,,Overcast,160,2013-11-16 10:35:00
4:55 AM,48.2,44.6,87,29.62,8.0,SSE,13.8,-,N/A,,Overcast,160,2013-11-16 10:55:00
5:15 AM,48.2,46.4,93,29.61,8.0,South,12.7,18.4,N/A,,Overcast,170,2013-11-16 11:15:00
5:35 AM,48.2,46.4,93,29.61,7.0,South,11.5,17.3,N/A,,Overcast,170,2013-11-16 11:35:00
5:55 AM,48.2,46.4,93,29.60,8.0,South,13.8,-,N/A,,Overcast,170,2013-11-16 11:55:00
6:15 AM,50.0,46.4,87,29.59,8.0,South,15.0,-,N/A,,Overcast,170,2013-11-16 12:15:00
6:35 AM,48.2,46.4,93,29.58,7.0,SSE,12.7,-,N/A,,Overcast,160,2013-11-16 12:35:00
6:55 AM,48.2,46.4,93,29.57,8.0,SSE,13.8,-,N/A,,Overcast,150,2013-11-16 12:55:00
7:15 AM,48.2,46.4,93,29.56,7.0,SE,11.5,17.3,N/A,,Overcast,140,2013-11-16 13:15:00
7:35 AM,48.2,46.4,93,29.55,5.0,SE,12.7,-,N/A,,Overcast,140,2013-11-16 13:35:00
7:55 AM,50.0,48.2,94,29.55,5.0,SSE,15.0,-,N/A,,Overcast,150,2013-11-16 13:55:00
8:15 AM,50.0,48.2,94,29.55,5.0,SE,12.7,-,N/A,,Overcast,140,2013-11-16 14:15:00
8:35 AM,50.0,48.2,94,29.53,5.0,SE,13.8,-,N/A,,Overcast,140,2013-11-16 14:35:00
8:55 AM,50.0,48.2,94,29.51,5.0,SE,13.8,-,N/A,,Overcast,140,2013-11-16 14:55:00
9:15 AM,51.8,50.0,94,29.50,6.0,SSE,15.0,-,N/A,,Overcast,160,2013-11-16 15:15:00
9:35 AM,53.6,51.8,94,29.50,6.0,South,13.8,-,N/A,,Overcast,170,2013-11-16 15:35:00
9:55 AM,55.4,51.8,88,29.50,6.0,South,15.0,-,N/A,,Overcast,170,2013-11-16 15:55:00
10:15 AM,57.2,51.8,82,29.49,7.0,South,17.3,27.6,N/A,,Overcast,170,2013-11-16 16:15:00
10:35 AM,57.2,53.6,88,29.48,8.0,South,18.4,-,N/A,,Overcast,170,2013-11-16 16:35:00
10:55 AM,59.0,53.6,82,29.46,8.0,South,20.7,27.6,N/A,,Overcast,170,2013-11-16 16:55:00
11:15 AM,59.0,53.6,82,29.45,9.0,South,20.7,-,N/A,,Overcast,170,2013-11-16 17:15:00
11:35 AM,60.8,53.6,77,29.44,9.0,South,21.9,28.8,N/A,,Overcast,180,2013-11-16 17:35:00
11:55 AM,60.8,53.6,77,29.43,9.0,South,15.0,23.0,N/A,,Overcast,190,2013-11-16 17:55:00
12:15 PM,62.6,55.4,77,29.41,10.0,SSW,19.6,26.5,N/A,,Overcast,200,2013-11-16 18:15:00
12:35 PM,64.4,57.2,77,29.39,5.0,South,23.0,31.1,N/A,Rain,Light Rain,190,2013-11-16 18:35:00
12:55 PM,66.2,57.2,73,29.38,9.0,South,24.2,38.0,0.01,,Mostly Cloudy,190,2013-11-16 18:55:00
1:15 PM,64.4,55.4,73,29.37,10.0,South,18.4,25.3,N/A,,Mostly Cloudy,180,2013-11-16 19:15:00
1:35 PM,64.4,55.4,73,29.36,10.0,South,24.2,35.7,N/A,,Overcast,190,2013-11-16 19:35:00
1:55 PM,64.4,55.4,73,29.35,10.0,South,25.3,35.7,N/A,,Overcast,190,2013-11-16 19:55:00
2:15 PM,66.2,55.4,68,29.34,10.0,South,23.0,36.8,N/A,,Mostly Cloudy,190,2013-11-16 20:15:00
2:35 PM,66.2,55.4,68,29.34,10.0,SSW,27.6,36.8,N/A,,Overcast,200,2013-11-16 20:35:00
2:55 PM,66.2,55.4,68,29.34,9.0,SSW,21.9,35.7,N/A,,Mostly Cloudy,200,2013-11-16 20:55:00
3:15 PM,66.2,55.4,68,29.32,10.0,South,26.5,34.5,N/A,,Scattered Clouds,190,2013-11-16 21:15:00
3:35 PM,66.2,55.4,68,29.34,10.0,South,20.7,32.2,N/A,,Scattered Clouds,190,2013-11-16 21:35:00
3:55 PM,66.2,55.4,68,29.34,10.0,South,18.4,34.5,N/A,,Overcast,190,2013-11-16 21:55:00
4:15 PM,66.2,55.4,68,29.35,-9999.0,SSW,19.6,25.3,N/A,,Overcast,200,2013-11-16 22:15:00
4:35 PM,64.4,55.4,73,29.35,10.0,South,19.6,26.5,N/A,,Mostly Cloudy,190,2013-11-16 22:35:00
4:55 PM,64.4,55.4,73,29.35,10.0,South,19.6,-,N/A,,Mostly Cloudy,190,2013-11-16 22:55:00
5:15 PM,64.4,55.4,73,29.37,10.0,South,16.1,-,N/A,,Mostly Cloudy,190,2013-11-16 23:15:00
5:35 PM,64.4,55.4,73,29.38,10.0,SSW,16.1,26.5,N/A,,Mostly Cloudy,200,2013-11-16 23:35:00
5:55 PM,62.6,55.4,77,29.38,10.0,South,15.0,24.2,N/A,,Mostly Cloudy,190,2013-11-16 23:55:00
6:15 PM,62.6,55.4,77,29.39,10.0,South,13.8,-,N/A,,Mostly Cloudy,190,2013-11-17 00:15:00
6:35 PM,62.6,55.4,77,29.39,10.0,SSW,18.4,25.3,N/A,,Scattered Clouds,200,2013-11-17 00:35:00
6:55 PM,64.4,55.4,73,29.40,10.0,SSW,19.6,31.1,N/A,,Mostly Cloudy,210,2013-11-17 00:55:00
7:15 PM,62.6,55.4,77,29.41,10.0,SSW,20.7,26.5,N/A,,Mostly Cloudy,200,2013-11-17 01:15:00
7:35 PM,60.8,55.4,82,29.42,10.0,SSW,15.0,-,N/A,,Partly Cloudy,210,2013-11-17 01:35:00
7:55 PM,60.8,55.4,82,29.42,10.0,SSW,13.8,20.7,N/A,,Clear,200,2013-11-17 01:55:00
8:15 PM,60.8,55.4,82,29.43,10.0,South,15.0,20.7,N/A,,Clear,190,2013-11-17 02:15:00
8:35 PM,60.8,55.4,82,29.43,10.0,SSW,16.1,-,N/A,,Clear,200,2013-11-17 02:35:00
8:55 PM,60.8,55.4,82,29.43,10.0,SSW,15.0,-,N/A,,Partly Cloudy,200,2013-11-17 02:55:00
9:15 PM,59.0,55.4,88,29.43,10.0,SSW,12.7,-,N/A,,Partly Cloudy,200,2013-11-17 03:15:00
9:35 PM,59.0,55.4,88,29.43,10.0,South,9.2,-,N/A,,Clear,190,2013-11-17 03:35:00
9:55 PM,55.4,53.6,94,29.44,10.0,WSW,6.9,-,N/A,,Clear,250,2013-11-17 03:55:00
10:15 PM,55.4,53.6,94,29.42,10.0,West,5.8,-,N/A,,Clear,270,2013-11-17 04:15:00
10:35 PM,55.4,53.6,94,29.43,9.0,SW,5.8,-,N/A,,Clear,220,2013-11-17 04:35:00
10:55 PM,53.6,53.6,100,29.43,8.0,SW,3.5,-,N/A,,Mostly Cloudy,220,2013-11-17 04:55:00
11:15 PM,55.4,55.4,100,29.42,9.0,Calm,Calm,-,N/A,,Overcast,0,2013-11-17 05:15:00
11:35 PM,53.6,53.6,100,29.43,6.0,Calm,Calm,-,N/A,,Overcast,0,2013-11-17 05:35:00
11:55 PM,55.4,53.6,94,29.43,8.0,Calm,Calm,-,N/A,,Overcast,0,2013-11-17 05:55:00